Location: Namasale
(1.5000°N, 32.6167°E)
Time: 01:30:30
(UTC+00:00)

Vanguard 2 Rocket - Pass Details

Date: 22 April 2021
Orbit: 553 x 3326 km, 32.9° (Epoch: 10 May)

Event Time Altitude Azimuth Distance (km) Brightness Sun altitude
Rises 19:45:13 0° 294° (WNW) 5,952 11.6 -56.5°
Reaches altitude 10° 19:50:03 10° 289° (WNW) 4,474 10.8 -57.6°
Enters shadow 19:54:20 22° 279° (W) 3,150 9.8 -58.5°
